Regional Weather Roundup
Issued by NWS

Home | Current Version | Previous Version | Text Only | Print | Product List | Glossary On
Versions: 1 2 3 4 5 6 7 8 9 10 11 12 13 14 15 16 17 18 19 20 21 22 23 24 25 26 27 28 29 30 31 32 33 34 35 36 37 38 39 40 41 42 43 44 45 46 47 48 49 50
000
ASUS46 KLOX 291913
RWRCA

SOUTHERN CALIFORNIA WEATHER ROUNDUP
NATIONAL WEATHER SERVICE OXNARD CALIFORNIA
1200 PM PDT FRI APR 29 2016

NOTE: "FAIR" INDICATES FEW OR NO CLOUDS BELOW 12,000 FEET WITH NO
SIGNIFICANT WEATHER AND/OR OBSTRUCTIONS TO VISIBILITY.

  -  STATIONS PRECEEDED BY AN ASTERISK (*) ARE NOT NWS OR FAA
     STATIONS AND ARE NOT SUBJECT TO NWS AND FAA QUALITY CONTROL.

CAZ041-042-087-292000-
LA AND ORANGE COUNTY COASTAL AREAS


CITY           SKY/WX    TMP DP  RH WIND       PRES   REMARKS
L.A. DOWNTOWN  MOSUNNY   68  51  54 W5        30.02F
L.A. AIRPORT   PTSUNNY   64  50  60 SW14      30.04S
LONG BEACH     PTSUNNY   65  50  58 S9        30.03F

CITY           SKY/WX    TMP DP  RH WIND       PRES   REMARKS
AVALON           N/A     64 N/A N/A S3G10       N/A
FULLERTON      PTSUNNY   67  49  52 VRB7      30.01F
*GETTY CENTER    N/A     63  50  63 SW13G21     N/A
HAWTHORNE      PTSUNNY   65  49  56 SW12      30.04S
*LEO CARRILLO    N/A     64  53  68 SW6         N/A
*LOS ALAMITOS  FAIR      67  50  55 SW10      30.02F
*REDONDO BEACH   N/A     64  51  62 W9        30.03S
SANTA ANA      PTSUNNY   65  51  60 SW12G18   30.03S
STA MONICA APT PTSUNNY   64  49  57 SW13      30.04S
*STA MON PIER    N/A     59  53  83 W7        29.98S
TORRANCE       PTSUNNY   68  50  52 VRB7      30.04F
*UCLA            N/A     63  46  55 SW13      30.00F

$$

CAZ547-548-048-292000-
LA COUNTY VALLEYS AND INLAND EMPIRE


CITY           SKY/WX    TMP DP  RH WIND       PRES   REMARKS
BURBANK        MOSUNNY   65  47  52 S7        30.01F
VAN NUYS       SUNNY     66  47  50 CALM      30.02S

CITY           SKY/WX    TMP DP  RH WIND       PRES   REMARKS
CORONA AIRPORT CLEAR     68  48  48 E7        30.01F
*CHATSWORTH      N/A     68  49  51 CALM      30.02F
CHINO          MOSUNNY   70  46  42 VRB6      30.03F
*CLAREMONT       N/A     62  47  58 S2          N/A
MARCH AFB      SUNNY     62  46  55 VRB2      30.00F
*NORTHRIDGE      N/A     66  45  45 E2          N/A
ONTARIO        MOSUNNY   65  44  46 CALM      30.02F
*PASADENA        N/A     68  52  56 E3          N/A
POMONA         MOSUNNY   63  46  55 VRB5      30.05F
RIVERSIDE      MOSUNNY   66  45  46 S5        30.02F
SAN BERNARDINO MOSUNNY   61  45  55 CALM      30.03F
*SAN GABRIEL     N/A     65  49  55 NW3       30.09F
*SAN RAFAEL HI   N/A     65  52  63 NE2         N/A
*SAUGUS          N/A     60  47  62 S8          N/A
*WHITEMAN AP   NOT AVBL
*WHITTIER HILL   N/A     65  48  54 SW5         N/A
*WOODLAND HILL   N/A     68  48  49 NE5         N/A

$$

CAZ054-055-292000-
LA AND SAN BERNARDINO COUNTY MOUNTAINS


CITY           SKY/WX    TMP DP  RH WIND       PRES   REMARKS
*ACTON           N/A     68  41  37 SW10        N/A
*BIG BEAR AIRP PTCLDY    52  27  37 W12G18    30.07S
*BIG PINES       N/A     56  29  35 CALM        N/A
*CHILAO          N/A     58  29  33 NW10        N/A
SANDBERG       SUNNY     62  38  40 N15G28    30.07S
*WARM SPRINGS    N/A     68  50  52 CALM        N/A

$$

CAZ028-029-059-060-099-292000-
ANTELOPE VALLEY AND SURROUNDING AREAS


CITY           SKY/WX    TMP DP  RH WIND       PRES   REMARKS
LANCASTER      SUNNY     74  36  25 W21G31    29.97S
PALMDALE       SUNNY     72  35  25 W21G33    29.97F
*POPPY PARK      N/A     70  39  32 W22         N/A

CITY           SKY/WX    TMP DP  RH WIND       PRES   REMARKS
29 PALMS       MOSUNNY   75  33  21 W15G24    29.98F
BARSTOW/DAGGET SUNNY     75  35  23 W14       29.92F
BISHOP         MOSUNNY   66  23  19 VRB3      29.94F
CHINA LAKE     MOSUNNY   74  29  19 E8        29.91F
EDWARDS AFB    PTSUNNY   72  33  24 W7G17     29.92F
MOJAVE         SUNNY     72  36  26 NW17G30   29.96F
NEEDLES        SUNNY     76  43  30 VRB3      29.87F
VICTORVILLE    MOSUNNY   70  32  24 W13       29.96F

$$

CAZ039-040-292000-
VENTURA AND SANTA BARBARA COUNTY COAST


CITY           SKY/WX    TMP DP  RH WIND       PRES   REMARKS
CAMARILLO      PTSUNNY   65  49  56 SW9       30.04S
NWS OXNARD       N/A     66  50  57 SW6       30.03S
OXNARD AIRPORT PTSUNNY   63  52  67 SW9       30.05S
*POINT MUGU    MOSUNNY   64  52  64 SW10      30.06R
SBA APT/GOLETA MOSUNNY   61  51  70 SE7       30.04F
*SANTA BARBARA   N/A     65  51  60 CALM      30.12S
*VENTURA         N/A     63  53  70 SW5       30.02F

$$

CAZ044-045-292000-
VENTURA COUNTY VALLEYS


CITY           SKY/WX    TMP DP  RH WIND       PRES   REMARKS
*SIMI VALLEY     N/A     67  52  57 CALM      29.98F
*WESTLAKE VILL   N/A     68  53  58 W2        30.01S
*OJAI            N/A     67  53  59 W2        29.97F
*FILLMORE        N/A     69  53  57 W3        29.91F

$$

CAZ053-292000-
VENTURA COUNTY MOUNTAINS


CITY           SKY/WX    TMP DP  RH WIND       PRES   REMARKS
*LOCKWOOD VLY    N/A     61  23  23 MISG        N/A
*ROSE VALLEY     N/A     63  50  63 MISG        N/A

$$

CAZ034-035-036-292000-
CENTRAL COAST AND SANTA YNEZ VALLEY


CITY           SKY/WX    TMP DP  RH WIND       PRES   REMARKS
SAN LUIS OBISP CLOUDY    61  49  64 NW9       30.08S
SANTA MARIA    MOSUNNY   63  49  60 W10       30.07F

CITY           SKY/WX    TMP DP  RH WIND       PRES   REMARKS
*CAL POLY SLO    N/A     57  52  82 W3          N/A
*LOMPOC        CLOUDY    59  48  67 W16G24    30.08S
*PISMO BEACH     N/A     55  50  86 SW5       30.09S
*SANTA YNEZ    FAIR      61  46  59 W6        30.06F

$$

CAZ037-038-051-292000-
SAN LUIS OBISPO COUNTY INTERIOR AND CUYAMA VALLEY


CITY           SKY/WX    TMP DP  RH WIND       PRES   REMARKS
*CUYAMA          N/A     69  42  37 E3        29.97F
PASO ROBLES    SUNNY     66  44  45 W5        30.03F

$$

CAZ032-033-061-292000-
SOUTHERN DESERTS


CITY           SKY/WX    TMP DP  RH WIND       PRES   REMARKS
BLYTHE         SUNNY     79  38  22 VRB5      29.87F
IMPERIAL       SUNNY     81  38  21 S8        29.89F
PALM SPRINGS   SUNNY     79  41  25 N13       29.90F
THERMAL        SUNNY     80  39  23 VRB5      29.86F

$$

ELSEWHERE ACROSS THE WESTERN UNITED STATES AND MEXICO


CITY           SKY/WX    TMP DP  RH WIND       PRES   REMARKS
DEATH VALLEY,    N/A     85  36  17 S2          N/A
DENVER, CO     SNOW      33  30  88 NE8       29.94S VSB 1/4 WCI  26
GRAND CANYON,  PTSUNNY   48  34  58 W12G18    29.95F
HONOLULU, HI   MOSUNNY   81  64  57 NE10      30.12R
KAHULUI, MAUI  MOSUNNY   82  63  51 E16       30.11S
LAKE TAHOE, CA MOSUNNY   51  22  31 SW8G24    30.03F
LAS VEGAS, NV  MOSUNNY   71  40  32 E8        29.86F
MAMMOTH LAKES, FAIR      55  13  19 NW10G17   30.03F
MEXICO CITY, M PTSUNNY   84  34  16 SE10      30.16F
PHOENIX, AZ    MOSUNNY   74  38  27 VRB6      29.87F
PORTLAND, OR   CLOUDY    53  48  83 CALM      30.16S
RENO, NV       PTSUNNY   63  25  23 W9        29.96F
SALT LAKE CITY PTSUNNY   53  33  46 CALM      29.89F
SAN DIEGO, CA  MOSUNNY   68  48  48 S9        30.04F
SAN FRANCISCO, MOSUNNY   58  46  64 W21       30.06S
SAN JOSE, CA   MOSUNNY   66  48  52 VRB5      30.04F
SEATTLE, WA    PTSUNNY   54  46  74 NE8       30.14S
TIJUANA, MEX   MOSUNNY   66  45  45 CALM      30.05F

$$

STATION/POSITION TIME  TEMP    WIND        PRES    VSBY  WAVE
                       AIR SEA DIR/SP/G                  HT/PER
                 (UTC) (F)     (DEG/KT/KT) (MB)    (MI)  (FT/S)
POINT ARGUELLO B NOT AVBL
WEST SANTA BARBA 1850   53 52  320/ 17/ 21 1017.8S        10/ 9
POINT CONCEPTION NOT AVBL
EAST SANTA BARBA 1800   55 56  270/  8/ 10 1018.3R
SANTA MONICA BAY 1850   57 60  290/  6/  8 1017.9S         4/ 6



USA.gov is the U.S. government's official web portal to all federal, state and local government web resources and services.